Location: Tel Aviv
(32.0670°N, 34.7670°E)
Time: 23:10:49
(UTC+03:00)

Hubble Space Telescope - Visible Passes

Search period start: 07 October 2024 00:00
Search period end: 17 October 2024 00:00
Orbit: 504 x 508 km, 28.5° (Epoch: 06 October)

Date Brightness Start Highest point End Pass type
(mag) Time Alt. Az. Time Alt. Az. Time Alt. Az.
07 Oct 3.5 04:18:46 12° SE 04:18:46 12° SE 04:19:08 10° SE visible
07 Oct 2.8 05:53:30 10° SW 05:55:31 14° SSW 05:57:32 10° S visible
08 Oct 2.8 05:33:38 12° SSW 05:34:11 12° SSW 05:35:49 10° S visible
09 Oct 3.2 05:13:52 10° S 05:13:52 10° S 05:13:53 10° S visible
14 Oct 3.4 20:20:23 10° SW 20:20:57 13° SW 20:20:57 13° SW visible
15 Oct 2.5 19:58:44 10° SW 20:00:46 23° SSW 20:00:46 23° SSW visible
16 Oct 1.7 19:37:05 10° SW 19:40:31 31° SSE 19:40:31 31° SSE visible
